STARLINK-32331, 61623

Orbit data source: Space-Track

STARLINK-32331, 61623 is a payload satellite owned by SpaceX/Seattle (US) in LEO that was launched on Wed, 23 Oct 2024 UTC via an FALCON 9 launch vehicle from the Air Force Eastern Test Range (AFETR). Payload-class satellites include a variety of spacecraft equipped with specific instruments for various scientific and technological missions. These include communications satellites like Starlink; space stations such as the ISS; scientific satellites like the Hubble; Earth observation satellites from companies like Planet Labs, Umbra, and HawkEye 360; GPS; miniature CubeSats for education and research; and military/defense satellites.

Loading next visibility...
Identifier
61623, 2024-191C
Orbit
LEO
Country
Flag of USUS
Related business
Manufacturer
SpaceX/Seattle
Mission
Operational Commercial Communications
Bus & Motor
STARLINK V2M, Unknown motor
Mass
730 kg wet, ~700 kg dry
Launch date (UTC)
2024-10-23 (1 year ago)
Launch vehicle
FALCON 9
Launch site
Air Force Eastern Test Range (AFETR)
Object type
Payload
Rocket body
Debris
Shape & HBR
Box + 2 Pan, 17.7 m
Radar Cross Section
33.884 m², Large (>1 m²)

Expand to show TLE details & history
Last TLE update: 19 hours ago

TLE from 19 hours ago
0 STARLINK-32331
1 61623U 24191C   26062.39742401 -.00000298  00000-0 -12811-5 0  9990
2 61623  43.0032 193.5455 0001627 278.2727  81.7940 15.27576264 76530
Epoch: 2026-03-03T09:32Z
TLE epoch observation values (Epoch: 2026-03-03T09:32:17.434Z)
Latitude
-0.00003°
Longitude
-110.70424°
Altitude
482.677 km
Speed
7.626 km/s
True Right ascension
12h 54m 10s
True Declination
0° 00' 00"
Sunlit
Object was in full shadow at epoch
Visualization orbit readout
Latitude
Unknown
Longitude
Unknown
Altitude
Unknown
Speed
Unknown
Apparent Right ascension
Unknown
Apparent Declination
Unknown
Sunlit
N/A
Visualization observer readout
Local Sidereal Time
08:01:01
Azimuth
Unknown
Elevation
Unknown
Doppler factor
Unknown
Orbital elements
Apogee altitude
486.122 km
Perigee altitude
483.888 km
Semi-major axis
6,863.142 km
Eccentricity
0.00016
Inclination
43.0032°
RAAN
193.5455°
Arg. of periapsis
278.2727°
True anomaly
81.81245°
Mean anomaly
81.794°
Eccentric anomaly
81.80323°
Mean motion
3.81732 °/min
Orbital period
94.31 mins
BSTAR
-0.0000012811
Loading maneuver chart data...
Computing Atmospheric mass density...
Loading historical data...
Loading historical data...
Loading historical data...
Loading historical data...
Loading historical data...
Loading historical data...
Loading historical data...

Documentation

Showing up to 5 results
|